CW7056 Olongapo City PH current weather conditions

sailwx.info

Wind from 036 at 0 knots gusting 4

Air temperature 27.8° C
Dewpoint 20.3° C

Last reported at 2015-Mar-27 14:37 UTC.
Time now 2015-Mar-27 15:38 UTC

Location: N 14°51' E 120°16'.
View on Google Maps.

See reports from other nearby stations

  
Tides and Currents Weather Stations Pressure Air Temp Water Temp Dewpoint Dewpoint Depression Visibility Wind Speed Wind Dir Waves Ship Positions
date/time (UTC)wind fromknots sea level pressurealtimeterstation pressurevisibilityair tempwater tempwave heightnotes
2015-Mar-27 14:37 036 0 gusting 4 27.8
2015-Mar-27 14:27 049 27.8
2015-Mar-27 14:16 072 27.8
2015-Mar-27 14:06 054 1 gusting 6 27.8
2015-Mar-27 13:55 038 1 gusting 6 27.8
2015-Mar-27 13:45 071 1 gusting 3 27.8
2015-Mar-27 13:35 038 0 gusting 3 27.8
2015-Mar-27 13:24 034 1 gusting 3 28.3
2015-Mar-27 13:14 018 1 gusting 4 28.3
2015-Mar-27 13:03 050 1 gusting 4 27.8
2015-Mar-27 12:53 060 27.8
2015-Mar-27 12:42 059 0 gusting 2 28.3
2015-Mar-27 12:30 060 0 gusting 2 28.3
2015-Mar-27 12:20 060 28.3
2015-Mar-27 12:10 029 2 gusting 5 28.3
2015-Mar-27 12:00 002 1 gusting 4 28.3
2015-Mar-27 11:50 037 1 gusting 2 27.8
2015-Mar-27 11:40 038 0 gusting 1 28.3
2015-Mar-27 11:30 038 28.3
2015-Mar-27 11:19 038 0 gusting 3 28.3
2015-Mar-27 11:09 024 1 gusting 4 28.9
2015-Mar-27 10:59 031 0 gusting 4 28.9
2015-Mar-27 10:49 014 1 gusting 5 28.9
2015-Mar-27 10:39 021 2 gusting 5 29.4
2015-Mar-27 10:29 035 1 gusting 6 29.4
2015-Mar-27 10:19 026 29.4
2015-Mar-27 10:07 321 30.0
2015-Mar-27 09:57 321 1 gusting 5 30.0
2015-Mar-27 09:47 040 2 gusting 5 30.6
2015-Mar-27 09:37 052 1 gusting 5 31.1
2015-Mar-27 09:27 028 1 gusting 6 31.1
2015-Mar-27 09:17 032 2 gusting 6 31.1
2015-Mar-27 09:07 021 1 gusting 5 31.7
2015-Mar-27 08:56 044 2 gusting 5 32.2
2015-Mar-27 08:46 341 1 gusting 5 32.2
2015-Mar-27 08:36 019 1 gusting 8 32.2
2015-Mar-27 08:26 060 2 gusting 8 32.2
2015-Mar-27 08:16 026 2 gusting 8 32.2
2015-Mar-27 08:05 012 3 gusting 8 32.2
2015-Mar-27 07:54 023 4 gusting 11 32.2
2015-Mar-27 07:44 022 3 gusting 11 32.2
2015-Mar-27 07:34 043 2 gusting 9 32.8
2015-Mar-27 07:24 029 2 gusting 10 32.8
2015-Mar-27 07:14 039 4 gusting 11 32.8
2015-Mar-27 07:03 112 3 gusting 11 33.3
2015-Mar-27 06:53 010 2 gusting 12 33.9
2015-Mar-27 06:43 021 5 gusting 12 34.4
2015-Mar-27 06:33 023 5 gusting 13 35.0
2015-Mar-27 06:23 009 3 gusting 13 35.0
2015-Mar-27 06:13 194 1 gusting 15 35.0
2015-Mar-27 06:01 130 3 gusting 15 34.4
2015-Mar-27 05:51 060 3 gusting 12 34.4
2015-Mar-27 05:40 071 4 gusting 14 34.4
2015-Mar-27 05:19 078 5 gusting 11 35.0
2015-Mar-27 05:09 065 5 gusting 13 33.9
2015-Mar-27 04:59 031 6 gusting 13 35.0
2015-Mar-27 04:48 051 6 gusting 15 34.4
2015-Mar-27 04:38 066 6 gusting 15 33.3
2015-Mar-27 04:28 018 3 gusting 8 34.4
2015-Mar-27 04:18 347 4 gusting 10 33.9
2015-Mar-27 04:08 006 2 gusting 10 33.9
2015-Mar-27 03:57 037 1 gusting 10 33.9
2015-Mar-27 03:47 089 6 gusting 14 33.3
2015-Mar-27 03:37 060 6 gusting 14 33.3
2015-Mar-27 03:26 056 5 gusting 14 32.8
2015-Mar-27 03:16 065 6 gusting 14 33.3
2015-Mar-27 03:06 231 2 gusting 15 32.8
2015-Mar-27 02:56 071 5 gusting 15 32.2
2015-Mar-27 02:46 032 4 gusting 13 32.8
2015-Mar-27 02:35 028 4 gusting 15 32.2
2015-Mar-27 02:25 028 5 gusting 15 31.7
2015-Mar-27 02:14 012 4 gusting 13 31.7
2015-Mar-27 02:03 070 2 gusting 12 32.2
2015-Mar-27 01:53 040 3 gusting 13 31.7
2015-Mar-27 01:42 052 6 gusting 13 31.7
2015-Mar-27 01:32 125 5 gusting 14 31.1
2015-Mar-27 01:22 074 5 gusting 14 31.1
2015-Mar-27 01:11 048 5 gusting 11 31.1
2015-Mar-27 01:01 072 5 gusting 10 30.6
2015-Mar-27 00:51 034 3 gusting 10 30.6
2015-Mar-27 00:41 035 2 gusting 11 30.6
2015-Mar-27 00:30 359 1 gusting 11 30.0
2015-Mar-27 00:20 020 3 gusting 12 30.0
2015-Mar-27 00:10 006 5 gusting 12 30.0
2015-Mar-27 00:00 006 2 gusting 8 29.4
2015-Mar-26 23:50 092 0 gusting 9 28.9
2015-Mar-26 23:40 28.3
2015-Mar-26 23:29 029 4 gusting 11 27.8
2015-Mar-26 23:19 025 3 gusting 13 27.8
2015-Mar-26 23:08 027 4 gusting 13 27.2
2015-Mar-26 22:57 032 3 gusting 7 27.2
2015-Mar-26 22:47 331 0 gusting 5 26.7
2015-Mar-26 22:37 037 1 gusting 8 26.7
2015-Mar-26 22:27 060 1 gusting 8 26.7
2015-Mar-26 22:17 064 3 gusting 9 26.7
2015-Mar-26 22:07 054 3 gusting 9 26.7
2015-Mar-26 21:57 032 2 gusting 8 26.7
2015-Mar-26 21:47 050 2 gusting 5 26.7
2015-Mar-26 21:37 026 0 gusting 4 26.7
2015-Mar-26 21:26 069 2 gusting 4 26.7
2015-Mar-26 21:16 002 2 gusting 5 26.7
2015-Mar-26 21:06 358 1 gusting 6 26.7
2015-Mar-26 20:55 018 1 gusting 5 26.7
2015-Mar-26 20:44 068 1 gusting 7 26.7
2015-Mar-26 20:34 008 3 gusting 8 26.7
2015-Mar-26 20:24 010 1 gusting 12 26.7
2015-Mar-26 20:14 346 3 gusting 12 26.7
2015-Mar-26 20:04 358 3 gusting 6 26.7
2015-Mar-26 19:41 037 2 gusting 7 26.7
2015-Mar-26 19:31 031 1 gusting 9 26.7
2015-Mar-26 19:21 062 3 gusting 9 26.7
2015-Mar-26 19:11 020 4 gusting 9 26.7
2015-Mar-26 19:01 070 2 gusting 11 26.7
2015-Mar-26 18:51 032 6 gusting 11 27.2
2015-Mar-26 18:41 017 3 gusting 9 27.2
2015-Mar-26 18:30 019 4 gusting 8 27.2
2015-Mar-26 18:19 340 3 gusting 10 27.2
2015-Mar-26 18:09 012 3 gusting 10 27.2
2015-Mar-26 17:58 017 5 gusting 14 27.2
2015-Mar-26 17:48 358 2 gusting 14 27.2
2015-Mar-26 17:37 005 1 gusting 11 27.2
2015-Mar-26 17:27 021 4 gusting 11 27.2
2015-Mar-26 17:17 048 3 gusting 11 27.2
2015-Mar-26 17:07 032 4 gusting 12 27.8
2015-Mar-26 16:56 032 4 gusting 12 27.8
2015-Mar-26 16:46 028 4 gusting 12 27.8
2015-Mar-26 16:35 049 2 gusting 8 27.8
2015-Mar-26 16:25 034 4 gusting 8 27.8
2015-Mar-26 16:15 019 4 gusting 7 27.8
2015-Mar-26 16:05 030 2 gusting 7 27.8
2015-Mar-26 15:55 034 1 gusting 7 27.8
2015-Mar-26 15:45 031 2 gusting 8 27.8
2015-Mar-26 15:35 322 2 gusting 11 27.8
2015-Mar-26 15:23 268 1 gusting 13 27.8
2015-Mar-26 15:13 036 3 gusting 13 27.8
2015-Mar-26 15:02 004 4 gusting 12 27.8
2015-Mar-26 14:52 032 4 gusting 9 27.8
2015-Mar-26 14:40 008 4 gusting 10 27.8
2015-Mar-26 14:29 055 3 gusting 11 27.8
2015-Mar-26 14:19 073 2 gusting 11 27.8
2015-Mar-26 14:09 052 2 gusting 10 27.8
2015-Mar-26 13:59 050 4 gusting 9 27.8
2015-Mar-26 13:48 084 4 gusting 11 27.8
2015-Mar-26 13:38 041 3 gusting 11 27.8
2015-Mar-26 13:28 034 2 gusting 11 28.3
2015-Mar-26 13:18 357 4 gusting 10 28.3
2015-Mar-26 13:06 082 4 gusting 9 28.3
2015-Mar-26 12:56 065 3 gusting 9 28.3
2015-Mar-26 12:46 042 1 gusting 6 28.3
2015-Mar-26 12:36 012 2 gusting 6 28.3
2015-Mar-26 12:26 019 3 gusting 7 28.3
2015-Mar-26 12:16 032 5 gusting 11 28.3
2015-Mar-26 12:05 008 5 gusting 11 28.3
2015-Mar-26 11:55 055 4 gusting 8 28.3
2015-Mar-26 11:45 009 4 gusting 7 28.3
2015-Mar-26 11:34 006 3 gusting 6 28.9
2015-Mar-26 11:24 020 2 gusting 4 28.9
2015-Mar-26 11:14 016 1 gusting 4 28.9
2015-Mar-26 11:04 074 28.9
2015-Mar-26 10:54 077 1 gusting 6 29.4
2015-Mar-26 10:43 039 1 gusting 6 29.4
2015-Mar-26 10:33 082 3 gusting 8 29.4
2015-Mar-26 10:23 076 1 gusting 8 29.4
2015-Mar-26 10:12 052 1 gusting 7 30.0
2015-Mar-26 10:02 046 1 gusting 6 30.0
2015-Mar-26 09:52 011 2 gusting 9 30.0
2015-Mar-26 09:42 054 5 gusting 13 30.6
2015-Mar-26 09:32 037 2 gusting 13 30.6
2015-Mar-26 09:22 018 4 gusting 9 30.6
2015-Mar-26 09:09 038 2 gusting 10 30.6
2015-Mar-26 08:59 010 5 gusting 10 31.1
2015-Mar-26 08:49 355 4 gusting 8 31.1
2015-Mar-26 08:39 045 1 gusting 10 31.1
2015-Mar-26 08:29 002 5 gusting 11 31.7
2015-Mar-26 08:18 023 4 gusting 11 31.7
2015-Mar-26 08:08 348 3 gusting 9 32.2
2015-Mar-26 07:58 030 4 gusting 9 31.7
2015-Mar-26 07:47 137 4 gusting 10 31.7
2015-Mar-26 07:37 073 5 gusting 9 31.7
2015-Mar-26 07:26 122 2 gusting 9 31.7
2015-Mar-26 07:16 052 3 gusting 9 32.2
2015-Mar-26 07:06 078 4 gusting 9 32.2
2015-Mar-26 06:56 350 1 gusting 10 31.7
2015-Mar-26 06:46 084 3 gusting 10 32.2
2015-Mar-26 06:34 096 0 gusting 11 32.2
2015-Mar-26 06:24 025 4 gusting 10 32.2
2015-Mar-26 06:13 359 3 gusting 10 32.8
2015-Mar-26 06:03 335 2 gusting 8 31.7
2015-Mar-26 05:53 022 1 gusting 11 31.7
2015-Mar-26 05:43 045 2 gusting 11 31.1
2015-Mar-26 05:32 025 3 gusting 11 31.1
2015-Mar-26 05:22 046 2 gusting 12 31.7
2015-Mar-26 05:12 001 5 gusting 14 32.2
2015-Mar-26 05:02 345 2 gusting 14 32.2
2015-Mar-26 04:52 347 5 gusting 12 32.2
2015-Mar-26 04:41 047 3 gusting 15 31.7
2015-Mar-26 04:30 050 2 gusting 15 32.2
2015-Mar-26 04:20 024 6 gusting 13 31.7
2015-Mar-26 04:10 053 3 gusting 11 31.7
2015-Mar-26 04:00 052 3 gusting 10 32.8
2015-Mar-26 03:50 141 4 gusting 10 32.2
2015-Mar-26 03:40 351 3 gusting 7 30.6
2015-Mar-26 03:29 014 2 gusting 10 30.6
2015-Mar-26 03:19 044 2 gusting 11 30.0
2015-Mar-26 03:08 018 4 gusting 13 30.6
2015-Mar-26 02:58 346 3 gusting 13 31.1
2015-Mar-26 02:47 357 3 gusting 13 30.6
2015-Mar-26 02:37 060 3 gusting 13 30.6
2015-Mar-26 02:27 036 4 gusting 12 30.6
2015-Mar-26 02:17 074 2 gusting 12 30.6
2015-Mar-26 02:07 040 2 gusting 7 30.6
2015-Mar-26 01:55 094 4 gusting 7 31.1
2015-Mar-26 01:45 053 4 gusting 7 30.0
2015-Mar-26 01:35 105 2 gusting 10 30.0
2015-Mar-26 01:25 084 4 gusting 10 30.0
2015-Mar-26 01:15 044 3 gusting 6 29.4
2015-Mar-26 01:05 024 2 gusting 7 29.4
2015-Mar-26 00:55 053 1 gusting 9 28.9
2015-Mar-26 00:43 044 3 gusting 8 29.4
2015-Mar-26 00:33 138 3 gusting 8 29.4
2015-Mar-26 00:23 139 2 gusting 9 28.3
2015-Mar-26 00:13 023 1 gusting 5 28.3
2015-Mar-26 00:02 153 1 gusting 6 27.8
2015-Mar-25 23:52 011 2 gusting 6 28.3
2015-Mar-25 23:42 161 27.8
2015-Mar-25 23:32 157 27.8
2015-Mar-25 23:22 132 1 gusting 3 27.8
2015-Mar-25 23:11 132 0 gusting 3 27.2
2015-Mar-25 23:01 131 0 gusting 6 27.2
2015-Mar-25 22:51 057 0 gusting 6 27.2
2015-Mar-25 22:40 084 0 gusting 6 27.2
2015-Mar-25 22:30 027 2 gusting 4 27.2
2015-Mar-25 22:19 068 3 gusting 5 27.2
2015-Mar-25 22:08 124 2 gusting 5 27.2
2015-Mar-25 21:58 071 1 gusting 5 27.2
2015-Mar-25 18:47 056 2 gusting 10 27.2
2015-Mar-25 18:37 045 3 gusting 12 27.8
2015-Mar-25 18:27 355 3 gusting 12 27.8
2015-Mar-25 18:17 013 1 gusting 5 27.8
2015-Mar-25 18:06 017 1 gusting 6 27.8
2015-Mar-25 17:56 037 1 gusting 12 27.8
2015-Mar-25 17:45 028 2 gusting 13 27.8
2015-Mar-25 17:35 090 5 gusting 13 27.2
2015-Mar-25 17:25 063 3 gusting 6 27.2
2015-Mar-25 17:15 103 1 gusting 6 27.2
2015-Mar-25 17:05 092 0 gusting 7 27.8
2015-Mar-25 16:55 016 2 gusting 8 27.8
2015-Mar-25 16:44 020 2 gusting 8 27.8
2015-Mar-25 16:34 038 2 gusting 9 27.8
2015-Mar-25 16:24 044 1 gusting 12 27.8
2015-Mar-25 16:13 026 3 gusting 12 27.8
2015-Mar-25 16:03 015 4 gusting 13 28.3
2015-Mar-25 15:53 037 2 gusting 12 28.3
2015-Mar-25 15:43 100 1 gusting 8 28.3
2015-Mar-25 15:32 051 2 gusting 6 27.8
2015-Mar-25 15:22 354 1 gusting 8 27.8
2015-Mar-25 15:11 031 2 gusting 8 27.8
2015-Mar-25 15:01 008 2 gusting 6 27.8